Location: Elma
(49.8670°N, 95.9170°W)
Time: 17:17:19
(UTC-05:00)

ISS - Pass Details

Date: 28 March 2019
Orbit: 408 x 410 km, 51.6° (Epoch: 18 April)

Event Time Altitude Azimuth Distance (km) Brightness Sun altitude
Rises 22:39:42 0° 285° (WNW) 2,339 1.0 -25.7°
Reaches altitude 10° 22:41:48 10° 286° (WNW) 1,476 -0.2 -25.9°
Enters shadow 22:43:15 24° 289° (WNW) 899 -1.5 -26.1°
